Theta_e
315 314 314 314 314 313 310 307 307 307 305 304 304 304 305 305 307 305 305 305 305 306 305 306 306 307 309 307 307 307 306 305 305 303 303 303 301 302 302 300 300 301
315 315 316 315 315 313 311 309 309 308 307 305 305 305 304 306 306 306 306 306 306 305 305 306 306 306 306 307 305 305 304 304 304 306 303 302 301 302 301 300 300 299
315 315 315 315 315 313 311 311 309 308 308 307 306 306 306 308 306 305 306 306 305 304 305 306 306 306 306 305 304 305 304 303 304 302 304 302 301 302 300 300 300 300
314 315 315 316 314 313 312 311 309 308 307 308 307 307 308 310 306 305 306 311 305 305 304 305 306 305 305 304 304 304 303 303 303 303 304 302 303 302 300 302 303 301
315 315 315 316 316 314 312 312 310 309 308 309 307 307 309 308 306 306 306 306 305 304 304 305 304 304 304 304 304 304 303 304 302 302 302 302 302 302 302 302 301 301
315 316 317 317 314 313 312 312 312 311 310 309 309 309 307 308 306 306 307 305 305 306 306 305 305 304 304 304 304 305 305 304 301 302 302 301 301 303 304 301 300 300
316 316 317 316 314 314 313 313 312 312 310 310 310 310 309 309 308 307 307 307 306 307 306 306 306 305 304 304 304 304 304 303 302 302 303 300 302 302 302 300 300 299
316 316 316 315 314 313 313 313 312 312 311 310 310 310 310 311 309 308 307 306 305 306 305 305 306 306 305 305 305 304 303 305 304 303 302 301 300 301 301 302 299 300
314 313 313 313 312 311 311 311 312 312 312 312 311 310 310 311 310 309 308 307 306 306 306 306 306 306 305 305 305 305 305 304 304 304 303 302 301 300 300 300 299 300
314 314 313 313 313 312 311 311 312 313 313 313 312 311 310 311 310 309 309 308 307 306 306 306 306 306 306 306 306 305 305 305 304 304 304 303 303 301 300 301 300 298
312 313 313 312 312 313 313 314 313 312 313 313 312 311 311 311 311 310 309 309 309 308 308 307 307 307 307 306 306 305 305 305 305 304 304 304 304 303 304 302 301 300
311 312 313 312 313 314 314 314 313 313 313 313 314 314 314 314 313 313 314 313 312 311 309 308 308 307 307 306 306 306 305 304 305 305 304 304 304 304 303 302 302 301
310 311 313 313 313 313 314 314 314 312 313 314 313 314 314 314 314 314 314 314 314 313 312 311 310 309 308 307 307 306 306 305 305 305 305 304 304 304 303 303 302 302
311 311 313 314 314 314 313 314 314 313 312 312 313 312 313 314 314 314 315 314 314 313 313 312 312 310 309 308 308 308 306 305 305 304 305 304 304 304 303 303 302 302
311 311 312 313 314 314 314 314 314 314 314 313 313 313 314 315 314 313 311 311 311 311 312 312 312 312 312 311 310 309 307 306 306 306 306 305 304 304 303 302 302 302
309 310 311 312 312 313 314 314 314 313 314 314 313 314 314 313 313 311 311 310 310 311 311 311 310 311 311 308 308 310 309 309 308 307 306 305 305 305 304 304 303 303
307 307 308 310 311 312 312 313 313 312 313 312 312 312 312 311 311 310 310 308 309 310 311 312 312 312 306 302 300 302 309 308 308 308 308 307 306 305 305 305 304 302
305 306 307 309 309 309 309 310 308 309 310 311 311 310 308 308 309 310 310 310 308 309 309 310 310 307 302 301 299 298 301 308 308 308 307 306 306 305 305 305 303 301
303 305 307 307 308 308 307 307 308 308 309 309 309 310 308 308 309 309 308 306 307 308 309 308 307 299 295 298 299 297 297 300 306 307 306 306 306 305 304 303 301 301
300 302 303 303 303 303 305 305 306 308 308 308 308 305 307 308 307 308 307 307 308 307 306 298 296 295 293 294 296 296 295 296 302 303 303 304 303 304 303 300 300 300
298 297 297 297 297 299 299 299 300 298 299 300 303 304 305 305 305 305 306 306 305 302 298 293 293 293 291 294 295 295 295 295 300 299 298 297 298 299 299 299 299 301
297 296 296 295 296 295 296 295 294 296 296 297 296 295 296 297 298 299 299 298 297 294 294 294 291 292 292 293 293 292 295 298 296 296 295 295 295 296 297 297 298 299
296 297 296 295 295 296 294 294 295 295 295 294 294 294 296 297 297 297 297 297 295 293 292 291 290 292 292 292 293 294 295 296 295 295 295 295 294 294 295 296 296 296
297 297 298 298 296 296 294 293 293 293 293 296 295 295 296 295 295 293 296 295 296 294 292 290 289 292 293 292 293 294 296 295 294 294 293 293 292 291 291 292 297 301
298 299 298 299 299 297 295 293 294 295 293 292 293 294 294 292 293 294 293 292 292 291 299 289 288 292 292 292 292 293 295 294 295 294 293 290 290 289 288 289 290 294
297 299 299 298 299 298 296 296 295 293 293 292 291 293 293 291 292 292 291 289 289 288 289 288 288 288 290 292 293 293 294 295 294 293 291 289 289 290 288 287 288 289
Wind_Speed
8 7 8 7 7 6 7 6 4 5 4 3 4 3 4 2 1 3 4 4 4 4 4 4 4 5 5 5 5 5 5 6 5 4 5 6 5 5 6 5 4 5
8 9 6 5 5 4 5 5 5 6 5 3 3 2 2 2 3 4 4 4 4 4 4 4 5 5 5 5 4 6 5 5 5 3 6 6 4 5 5 5 4 3
5 6 7 8 8 6 6 5 4 5 5 3 1 1 1 1 3 2 4 5 5 4 4 4 5 5 5 5 4 4 5 4 5 3 5 5 4 5 4 4 4 4
6 5 6 7 5 5 5 5 4 3 3 3 3 2 1 1 2 3 3 4 5 4 4 4 5 4 5 4 4 4 4 4 3 4 4 3 3 4 3 4 4 4
5 5 3 4 2 2 4 6 6 4 4 4 3 2 2 2 2 2 3 3 4 4 4 4 4 4 4 4 4 5 3 4 3 3 4 4 2 3 2 4 4 4
2 3 7 8 6 5 5 6 6 6 5 4 5 3 3 2 3 3 3 4 4 5 4 4 5 4 4 4 4 5 4 4 3 4 4 4 2 1 3 4 4 4
5 6 8 8 7 6 6 6 5 7 6 5 3 4 4 4 4 4 4 4 4 4 5 5 6 5 4 5 5 5 4 5 4 4 4 3 3 2 2 4 4 4
6 6 7 8 8 7 7 6 5 6 7 4 5 5 5 6 6 5 4 4 4 4 4 4 4 5 5 5 6 6 5 4 6 5 5 4 4 4 2 2 4 4
4 4 4 5 7 6 5 4 4 4 4 7 6 5 5 5 6 5 5 4 4 4 4 5 5 6 5 6 6 6 7 5 5 6 6 6 5 5 4 3 3 4
6 5 5 4 5 4 2 1 1 2 3 3 6 5 7 5 4 4 4 4 4 4 4 4 4 4 5 6 7 7 7 7 6 6 6 6 6 6 4 4 4 4
4 4 4 3 4 5 6 5 3 1 0 0 1 1 3 5 5 5 4 3 4 4 5 5 4 3 2 2 2 2 3 4 5 5 5 5 6 6 6 6 5 5
5 4 5 5 6 6 6 6 5 3 2 2 1 6 5 4 2 3 5 7 8 9 5 4 3 3 4 4 3 3 3 3 3 4 4 4 5 5 5 6 6 6
5 5 6 6 6 6 5 6 6 4 1 1 5 3 1 4 7 6 7 10 12 7 5 6 5 3 4 4 4 4 4 4 4 4 4 4 4 5 5 5 5 5
6 6 6 6 6 7 6 4 5 6 5 2 1 2 1 3 5 8 8 5 5 3 3 7 7 4 4 4 4 4 3 4 4 4 4 4 3 3 4 5 6 5
7 5 5 6 7 7 8 7 5 6 5 4 5 6 6 9 8 5 2 0 0 0 1 4 8 8 5 4 4 4 4 4 4 4 4 4 4 4 4 3 4 5
4 5 5 6 6 8 10 9 8 9 9 8 8 8 7 6 6 4 4 5 4 3 2 3 7 7 5 6 7 6 5 6 5 5 4 5 6 6 5 4 5 6
3 3 4 6 6 4 6 8 8 7 7 7 6 6 6 3 1 3 3 1 3 3 4 7 8 7 6 6 7 9 6 5 5 6 6 6 6 7 8 8 7 6
2 3 3 3 4 4 5 4 3 4 5 6 6 4 1 1 5 5 4 4 4 3 5 8 7 5 4 5 7 8 8 6 5 5 5 5 5 6 6 6 6 4
3 4 5 5 6 5 3 3 4 4 5 5 6 5 5 7 6 5 7 5 3 4 7 8 6 3 3 4 6 8 9 8 5 5 5 5 5 5 4 4 3 4
5 5 5 6 5 4 4 4 4 5 5 5 4 3 5 6 6 6 4 5 7 8 7 3 2 3 5 5 5 6 6 5 3 3 3 3 4 4 4 4 5 6
3 3 4 3 4 4 5 5 5 4 4 4 5 7 7 8 8 8 8 8 8 6 5 4 2 3 4 4 3 3 1 2 1 1 2 1 1 2 3 4 5 6
3 4 4 4 5 5 5 4 3 3 3 1 3 3 3 3 2 2 4 4 3 4 4 2 0 2 1 3 5 6 6 4 3 3 3 3 3 3 3 3 4 5
1 4 4 4 4 5 5 4 4 2 2 3 4 3 3 2 1 0 0 2 3 2 3 1 0 3 0 6 8 9 6 5 4 5 4 5 5 4 4 4 3 3
3 3 4 5 4 5 4 3 1 1 2 1 3 4 4 2 1 3 3 2 0 1 1 3 1 2 1 5 8 8 8 6 5 6 5 6 6 5 5 5 7 11
4 5 4 4 5 5 4 4 3 3 2 3 5 5 3 2 3 5 5 5 4 3 4 2 1 3 3 3 7 9 7 5 6 6 6 4 5 6 5 6 6 7
3 4 5 4 5 4 3 3 1 2 2 4 4 6 6 5 4 5 5 4 3 4 4 2 3 2 2 4 5 7 8 6 6 7 6 5 4 5 6 5 5 6
Wind_Direction
163 157 161 159 153 158 158 159 165 159 170 160 166 189 180 185 145 123 121 107 116 116 119 115 111 104 100 93 96 96 98 106 105 107 95 98 97 103 99 101 90 108
172 162 160 138 125 151 154 160 164 162 169 176 195 191 222 158 184 143 132 126 123 133 136 131 126 124 121 116 113 110 104 108 112 115 106 96 108 95 100 100 106 103
172 158 144 146 155 183 168 162 165 163 162 177 168 205 255 259 185 165 142 139 136 142 145 141 132 133 131 129 127 119 121 115 117 107 108 118 115 106 121 113 85 81
183 156 149 143 147 183 167 157 169 160 139 147 193 195 215 247 221 182 171 149 142 150 150 143 143 140 135 134 123 116 124 119 118 108 95 78 83 104 110 101 100 88
152 118 119 127 123 217 177 171 177 169 170 176 168 189 184 213 232 231 186 171 152 145 145 147 143 146 140 136 132 125 127 119 105 107 110 108 89 104 118 107 104 96
44 131 158 157 184 217 200 198 181 174 173 166 194 179 182 184 209 225 224 191 182 159 153 152 157 160 155 146 137 142 141 132 141 119 123 135 132 86 117 115 121 120
197 172 192 171 175 198 208 210 196 179 179 187 161 194 172 187 209 219 220 214 195 186 170 168 165 169 171 152 149 149 156 150 148 145 141 160 137 125 104 123 124 130
190 183 210 181 173 187 203 210 209 197 182 158 187 201 180 196 204 212 210 207 202 204 200 183 175 171 172 163 158 160 168 161 161 160 150 158 145 163 156 125 134 138
145 154 187 186 169 182 203 212 225 233 187 179 193 195 200 201 207 203 205 206 216 218 203 198 189 182 182 175 174 172 173 181 175 167 162 159 168 186 184 153 135 146
152 155 157 168 145 124 103 64 27 337 308 242 195 186 197 210 206 207 204 206 215 227 233 229 219 205 194 192 182 178 177 181 182 181 177 175 179 185 175 169 172 161
130 133 139 142 127 113 108 99 73 48 80 47 33 42 19 12 353 346 322 298 261 233 220 221 228 236 233 247 257 227 199 184 185 187 188 187 187 183 179 178 177 185
127 128 137 150 158 150 129 103 91 72 4 329 166 137 122 115 88 49 7 336 313 287 283 272 243 207 207 213 223 215 194 188 198 205 204 197 194 192 187 185 184 194
126 138 148 154 144 134 133 139 127 111 82 333 333 336 133 164 180 184 201 218 236 247 276 272 253 222 222 222 215 210 208 200 200 208 213 213 210 200 199 194 195 192
150 162 149 129 122 120 110 107 110 109 128 138 148 170 231 252 235 217 217 212 262 292 306 289 269 238 227 224 226 224 212 217 215 212 218 225 246 240 209 208 204 199
163 132 106 127 137 133 125 124 128 132 144 154 177 189 197 215 223 219 188 133 61 71 275 266 263 255 227 216 218 227 214 224 223 214 211 226 230 238 241 236 230 216
142 118 136 129 139 154 149 158 169 173 174 186 194 200 201 197 200 182 172 180 190 196 191 252 261 264 245 219 210 212 217 221 218 216 205 201 214 222 228 219 229 233
137 128 139 159 175 182 175 169 183 189 185 188 195 198 200 192 197 215 237 135 183 209 231 241 242 244 256 252 242 230 225 228 224 227 216 215 214 210 218 223 222 215
155 127 142 173 198 198 199 187 154 170 178 191 199 210 102 284 249 231 232 217 193 203 229 242 246 249 260 254 241 239 235 233 234 234 230 224 222 220 225 221 217 200
183 174 180 189 202 211 196 175 182 175 187 190 203 193 167 210 231 223 223 209 197 214 229 233 240 275 304 266 244 234 229 221 233 224 220 227 223 225 229 213 180 170
155 165 177 185 178 177 173 175 175 193 190 194 188 165 178 204 208 212 210 198 205 212 218 227 231 317 297 289 276 252 243 211 239 240 232 228 219 212 200 173 164 162
136 148 154 156 152 152 155 165 173 171 177 186 185 190 195 197 200 198 198 198 199 184 165 169 211 298 294 273 267 275 243 186 167 104 88 71 73 147 152 149 154 159
158 157 160 143 144 138 132 128 120 137 130 134 111 113 139 146 123 160 179 188 154 135 125 122 277 348 206 167 126 122 121 94 86 84 86 75 63 66 83 111 139 144
232 173 162 162 154 136 136 146 143 132 138 158 96 75 72 50 44 76 302 143 134 130 129 132 343 347 97 126 125 123 101 95 94 91 90 84 61 48 46 43 37 82
181 215 185 174 165 160 174 179 161 159 168 159 107 102 88 126 126 53 41 36 68 190 137 148 182 345 132 148 145 147 134 126 121 108 97 91 75 46 41 43 42 68
190 180 223 189 174 185 178 169 183 169 153 117 116 108 97 109 102 99 68 41 35 51 38 68 81 33 61 161 143 132 118 119 119 112 101 79 85 68 46 54 54 57
184 185 182 201 193 188 192 204 156 117 126 104 78 89 92 72 77 78 81 59 49 58 59 71 95 53 50 105 117 112 120 119 121 121 120 112 96 101 85 54 64 72